Wind_Speed
19 19 19 20 20 19 18 16 15 14 13 11 10 9 11 12 12 11 11 11 11 12 12 13 13 14 15 15 15 13 9 6 8 9 9 7 4 3 5 4 1 2 4
18 17 17 17 16 15 14 13 11 10 10 10 10 11 11 10 9 9 9 9 10 10 11 10 10 10 11 12 13 13 11 7 6 8 9 9 6 3 2 3 2 0 3
15 14 13 13 14 14 13 13 12 12 12 12 12 11 12 12 12 12 11 10 10 8 8 9 8 8 8 7 8 9 10 10 7 6 8 8 8 6 4 2 1 2 3
11 12 12 12 12 12 11 10 10 10 10 10 10 10 10 11 10 10 10 11 11 10 11 10 10 9 9 10 9 7 6 5 7 9 8 8 7 6 5 6 5 4 5
11 11 11 10 10 10 9 9 9 9 10 11 11 10 11 11 11 11 10 9 9 10 11 11 13 14 12 11 10 10 10 10 7 5 5 6 7 7 5 5 6 4 5
11 11 9 10 10 11 10 10 9 9 10 11 12 12 12 13 13 13 12 11 11 11 10 10 11 12 13 13 13 13 13 13 12 12 11 7 3 4 5 5 5 6 5
11 11 11 12 11 11 11 11 12 13 12 13 11 11 11 12 13 14 14 13 13 13 12 12 11 12 12 12 11 12 12 13 14 15 14 14 13 7 4 4 5 6 7
9 10 10 11 11 13 14 15 15 14 14 14 14 13 13 13 12 12 12 12 12 11 10 11 12 11 11 13 13 13 13 13 12 14 15 16 15 15 14 8 7 8 8
9 11 12 13 14 13 13 14 14 14 15 15 15 15 15 15 14 13 13 13 12 11 9 8 9 10 12 13 14 14 15 14 14 13 13 15 16 17 17 17 16 12 11
9 12 12 11 12 13 14 14 13 13 13 13 14 15 15 15 15 15 14 14 14 14 14 13 11 11 11 12 13 15 15 16 16 15 14 13 14 16 19 19 20 21 19
8 10 10 11 11 12 13 11 10 11 12 13 13 14 14 15 16 16 15 15 15 15 16 16 17 16 14 13 13 14 16 17 18 19 18 17 15 16 17 19 21 22 23
8 7 7 8 8 9 9 10 11 11 13 15 16 16 17 17 17 17 17 18 18 17 17 17 18 19 19 19 18 17 17 18 19 20 19 18 18 17 17 18 19 21 23
5 6 7 9 10 11 11 12 13 14 14 15 16 17 17 18 19 20 20 20 21 21 21 21 21 22 23 23 22 22 22 21 21 21 23 22 21 19 20 19 19 19 24
5 6 8 9 11 13 12 12 13 14 15 17 18 17 14 17 20 20 20 21 21 22 23 24 26 26 26 28 28 27 26 25 25 23 24 24 24 22 21 22 20 20 22
8 10 11 13 12 12 13 14 14 14 16 16 15 13 12 15 18 16 16 20 21 22 23 24 25 28 30 31 31 31 31 30 29 27 26 27 26 25 24 24 25 22 20
10 12 12 13 14 14 15 15 15 15 15 15 14 15 15 18 18 18 20 24 23 22 23 26 28 31 34 33 33 34 35 35 34 32 30 29 28 28 27 28 27 25 23
12 14 14 15 16 17 17 16 18 18 18 18 19 20 21 24 25 24 25 26 27 28 29 31 34 36 34 33 35 36 37 39 38 36 35 33 32 31 29 29 31 30 27
13 14 16 17 17 18 18 18 20 22 22 23 24 26 27 28 29 30 32 32 34 34 35 34 36 38 41 40 39 40 40 38 40 40 39 37 36 35 33 32 31 32 31
15 17 18 19 19 19 20 21 24 26 28 28 29 30 31 32 34 35 37 37 38 39 37 37 41 43 43 42 43 42 40 40 40 40 42 41 40 38 37 35 34 34 33
17 19 21 22 23 23 24 25 27 29 30 31 32 32 33 34 36 37 38 40 41 43 41 42 43 44 45 51 54 49 40 39 39 40 41 43 42 42 41 39 38 37 36
19 21 23 26 28 28 28 29 31 33 34 35 36 36 37 38 40 41 43 43 43 44 44 43 43 46 49 52 55 55 50 38 38 39 41 42 43 45 45 44 42 41 40
22 25 27 29 31 32 31 31 32 35 36 37 39 40 42 45 46 46 47 49 48 48 47 44 45 50 53 56 56 49 46 49 40 40 41 43 43 46 46 46 46 45 44
25 28 31 33 34 35 35 35 36 38 39 40 43 46 46 47 49 51 51 51 50 50 49 48 47 49 54 57 57 50 46 45 46 41 40 41 42 44 46 47 48 48 48
27 31 33 34 36 37 38 39 40 41 43 44 47 48 49 50 52 53 52 52 51 50 50 47 47 51 56 56 56 51 52 49 42 39 41 39 40 42 42 46 49 50 50
31 31 32 35 37 40 42 43 44 46 47 47 48 49 50 52 53 54 54 52 50 49 50 48 52 56 59 58 53 52 51 48 45 39 34 39 40 39 43 43 45 48 51
32 33 34 36 39 42 47 49 49 51 52 53 52 55 53 54 53 53 52 51 49 50 50 53 59 60 59 53 53 51 46 43 42 41 37 36 38 42 43 43 45 47 46
Wind_Direction
75 77 79 78 75 70 70 69 69 67 65 57 49 39 33 25 23 25 23 22 19 21 26 30 32 35 37 41 42 43 37 9 353 350 353 354 347 61 68 50 80 175 195
74 71 71 75 77 77 77 74 70 66 58 51 42 38 40 36 34 28 24 18 13 9 6 11 15 18 25 28 33 38 43 39 19 0 352 357 350 316 81 79 54 192 214
70 72 71 73 72 67 59 52 48 43 39 36 32 27 26 24 18 12 12 8 9 6 0 351 352 354 359 10 19 23 27 24 24 29 20 5 357 330 283 269 238 235 236
76 62 61 61 66 66 60 48 39 31 26 23 23 20 20 20 15 12 12 5 359 353 349 347 346 349 347 345 349 351 359 16 6 2 12 13 9 349 313 279 269 263 259
56 51 47 50 52 53 45 39 32 22 18 17 14 11 5 6 10 4 2 357 355 356 353 348 342 338 340 342 341 338 335 332 334 340 356 3 9 6 341 314 298 282 284
38 35 38 41 41 39 39 35 29 27 18 10 6 3 357 356 357 355 355 357 356 354 353 350 347 344 342 344 342 336 333 328 326 323 321 320 339 356 347 329 310 306 293
27 41 43 47 43 38 34 33 27 25 18 11 8 2 353 352 349 345 345 347 348 350 348 344 341 338 335 333 336 330 326 322 320 321 318 315 312 301 287 305 315 301 295
41 47 46 49 47 42 35 32 30 28 24 18 16 13 9 11 3 353 349 348 347 345 342 342 337 331 327 326 322 320 316 312 311 308 309 309 306 302 296 274 266 285 289
31 44 45 51 47 41 29 25 20 18 14 13 14 12 9 8 5 360 354 352 350 350 351 343 334 332 328 328 326 321 314 312 310 307 304 302 297 297 295 295 289 268 266
39 49 49 43 35 27 18 10 5 11 12 13 11 9 5 3 359 355 348 339 334 332 327 324 317 313 314 312 309 310 309 307 304 301 297 298 297 293 288 286 286 287 276
58 52 40 25 16 12 1 352 354 0 3 3 360 357 354 352 351 347 343 340 334 330 324 318 315 309 302 297 293 292 292 293 294 295 299 293 288 289 292 287 282 282 277
55 42 19 360 354 351 342 341 347 349 354 354 353 349 347 346 343 338 334 330 327 324 319 315 311 307 305 300 295 291 287 282 283 284 289 288 289 287 285 286 280 275 271
39 18 347 336 337 330 334 337 341 344 350 348 346 344 343 342 339 335 329 326 324 321 317 312 308 305 302 298 294 291 287 283 279 279 275 278 278 281 284 281 279 276 269
15 347 328 323 322 329 338 336 337 337 335 335 336 338 342 345 339 333 329 328 326 322 318 315 311 306 301 299 297 294 287 283 279 276 274 270 270 271 273 277 273 270 271
345 333 328 328 330 329 325 322 326 329 327 326 327 325 325 336 340 341 342 337 333 328 326 321 317 316 311 302 295 290 287 284 280 276 271 267 266 265 263 266 273 275 272
327 322 319 319 318 317 320 324 324 323 323 320 315 311 303 314 326 327 324 324 322 321 320 322 318 317 311 308 300 289 284 281 278 275 271 267 263 260 260 260 264 270 270
312 310 311 312 314 318 323 328 326 321 319 313 309 308 306 306 306 307 311 313 314 312 309 311 314 310 315 314 308 302 289 281 274 271 269 265 263 260 257 256 259 261 264
312 312 313 313 317 318 323 322 317 315 313 311 311 309 309 308 307 303 300 301 306 307 308 305 308 311 309 308 311 307 295 286 276 271 266 263 261 260 259 255 254 257 258
310 310 309 312 315 316 315 315 314 312 311 310 310 309 309 307 307 306 305 302 301 304 304 305 307 308 311 309 309 308 300 291 283 272 266 263 261 258 258 256 254 253 253
308 309 310 309 309 310 312 312 311 310 309 310 307 304 304 306 307 305 302 300 299 300 300 302 304 308 314 316 316 311 303 293 286 280 269 263 260 259 257 255 254 253 252
302 302 306 308 309 310 309 309 310 309 309 306 303 303 305 306 305 305 303 301 300 300 300 301 303 306 312 314 314 310 305 294 288 281 277 268 260 257 255 254 252 253 252
299 304 307 307 306 305 305 305 304 304 304 304 305 306 307 308 308 307 305 305 305 305 304 303 303 306 309 311 311 304 299 298 291 283 275 270 263 258 255 254 253 251 251
299 301 303 303 302 301 302 303 305 306 306 306 306 306 306 307 308 307 307 305 305 305 305 305 304 305 307 307 308 303 301 298 295 289 279 271 264 259 256 254 253 252 251
294 294 297 299 299 299 301 304 305 306 307 306 306 305 304 305 307 308 307 305 304 303 303 302 308 310 308 307 305 302 303 299 293 288 285 277 270 263 257 256 255 253 252
291 294 296 297 298 301 302 303 305 303 303 303 302 302 303 304 305 306 305 305 304 303 304 300 304 308 308 306 303 301 301 297 293 286 278 279 279 271 268 262 256 256 255
291 293 295 296 298 300 301 302 302 302 302 303 309 308 307 307 306 305 306 307 306 305 304 302 303 305 306 302 301 300 298 294 290 287 282 275 274 276 275 269 268 261 258
Height
5872 5871 5871 5868 5868 5867 5867 5867 5866 5865 5865 5864 5864 5864 5863 5862 5861 5860 5859 5857 5856 5854 5853 5852 5850 5849 5848 5846 5844 5843 5841 5841 5840 5840 5838 5837 5835 5833 5832 5832 5831 5830 5830
5873 5873 5872 5871 5869 5868 5868 5868 5867 5866 5866 5865 5864 5864 5863 5862 5860 5859 5858 5857 5856 5855 5854 5853 5852 5850 5849 5847 5845 5844 5842 5842 5841 5840 5839 5837 5836 5835 5834 5833 5832 5832 5832
5874 5874 5873 5872 5871 5870 5870 5869 5869 5868 5867 5867 5866 5865 5864 5862 5861 5860 5859 5857 5856 5855 5853 5852 5851 5851 5849 5848 5846 5844 5843 5842 5840 5839 5838 5837 5836 5835 5835 5834 5833 5833 5832
5875 5874 5874 5872 5871 5871 5871 5870 5869 5868 5868 5867 5866 5865 5863 5862 5861 5860 5859 5858 5857 5856 5855 5853 5852 5851 5849 5848 5847 5845 5843 5841 5840 5839 5837 5836 5835 5835 5835 5834 5834 5833 5832
5875 5875 5874 5873 5872 5872 5872 5871 5870 5870 5869 5868 5866 5865 5863 5862 5860 5860 5859 5858 5856 5855 5855 5853 5852 5850 5849 5848 5847 5845 5844 5842 5839 5838 5837 5836 5835 5835 5834 5834 5833 5832 5831
5876 5875 5874 5874 5873 5872 5872 5871 5871 5870 5869 5867 5866 5864 5863 5861 5860 5859 5859 5857 5856 5855 5854 5852 5850 5849 5848 5847 5846 5845 5844 5842 5840 5839 5838 5836 5834 5833 5833 5833 5832 5831 5830
5876 5875 5875 5874 5874 5874 5873 5872 5871 5870 5868 5867 5866 5864 5863 5861 5859 5858 5857 5856 5855 5854 5853 5852 5850 5848 5846 5845 5844 5842 5842 5841 5839 5837 5836 5836 5835 5832 5830 5830 5831 5830 5830
5877 5876 5876 5875 5875 5874 5873 5872 5871 5870 5869 5868 5866 5864 5862 5860 5859 5857 5856 5854 5852 5852 5852 5850 5849 5847 5845 5843 5842 5840 5839 5838 5837 5836 5834 5834 5833 5832 5831 5828 5827 5828 5828
5878 5877 5877 5876 5875 5874 5873 5872 5872 5871 5870 5869 5867 5865 5862 5860 5859 5857 5855 5853 5851 5850 5849 5849 5847 5845 5843 5841 5839 5838 5836 5835 5834 5832 5832 5831 5830 5829 5829 5828 5827 5825 5824
5879 5878 5878 5877 5876 5875 5874 5874 5873 5872 5870 5869 5867 5865 5863 5860 5858 5857 5855 5853 5850 5848 5846 5845 5844 5843 5841 5840 5838 5835 5834 5832 5830 5829 5828 5827 5827 5826 5825 5825 5824 5824 5823
5880 5879 5878 5878 5876 5875 5875 5875 5873 5872 5870 5868 5867 5864 5862 5860 5858 5856 5854 5851 5849 5846 5844 5842 5840 5838 5837 5836 5834 5833 5831 5829 5827 5825 5824 5823 5822 5821 5821 5820 5820 5820 5820
5880 5880 5879 5878 5877 5876 5876 5875 5873 5871 5869 5867 5865 5863 5861 5858 5856 5854 5852 5849 5847 5844 5842 5840 5837 5834 5832 5831 5830 5828 5827 5824 5823 5821 5821 5818 5818 5817 5816 5815 5815 5814 5815
5880 5879 5878 5878 5877 5876 5875 5874 5872 5870 5868 5866 5864 5862 5859 5856 5854 5851 5848 5846 5844 5842 5840 5837 5834 5831 5828 5826 5824 5822 5821 5819 5818 5817 5815 5814 5813 5812 5811 5810 5809 5809 5808
5879 5878 5878 5877 5876 5876 5874 5873 5871 5869 5867 5864 5862 5859 5857 5854 5851 5848 5845 5843 5840 5838 5835 5833 5830 5827 5824 5821 5818 5816 5814 5812 5811 5811 5809 5808 5807 5807 5805 5803 5802 5803 5802
5880 5879 5878 5877 5876 5874 5873 5871 5869 5867 5865 5862 5859 5857 5854 5851 5848 5845 5843 5840 5837 5834 5831 5828 5825 5822 5820 5816 5813 5809 5807 5805 5804 5802 5802 5800 5799 5799 5799 5797 5795 5796 5796
5880 5879 5878 5876 5875 5873 5871 5869 5867 5864 5862 5860 5857 5854 5851 5848 5845 5842 5838 5835 5833 5830 5827 5824 5820 5816 5812 5809 5806 5803 5799 5797 5795 5794 5793 5792 5791 5790 5790 5789 5788 5789 5789
5879 5877 5876 5874 5872 5871 5869 5866 5864 5863 5860 5857 5853 5850 5848 5845 5842 5839 5835 5831 5827 5823 5821 5818 5815 5811 5807 5803 5799 5795 5791 5788 5786 5784 5783 5783 5782 5781 5781 5781 5781 5780 5781
5876 5875 5873 5871 5869 5867 5865 5863 5860 5858 5855 5852 5849 5846 5843 5840 5836 5833 5829 5825 5821 5816 5811 5808 5805 5802 5799 5796 5792 5786 5781 5778 5776 5774 5772 5772 5772 5771 5771 5771 5772 5772 5772
5873 5871 5870 5868 5866 5864 5861 5859 5856 5853 5851 5848 5844 5840 5837 5834 5830 5826 5822 5818 5813 5809 5805 5800 5794 5789 5786 5784 5781 5778 5772 5767 5764 5763 5762 5761 5761 5760 5760 5760 5762 5762 5762
5869 5868 5866 5864 5862 5860 5858 5855 5852 5849 5845 5842 5838 5835 5831 5828 5824 5820 5815 5810 5805 5801 5796 5791 5786 5780 5775 5768 5763 5762 5762 5757 5753 5751 5750 5749 5749 5749 5749 5749 5750 5751 5752
5866 5863 5861 5859 5858 5856 5853 5850 5846 5843 5839 5836 5832 5828 5824 5820 5816 5811 5806 5800 5796 5792 5787 5782 5776 5771 5766 5761 5756 5748 5743 5745 5742 5740 5738 5737 5737 5736 5736 5737 5738 5739 5741
5861 5859 5856 5853 5851 5849 5846 5843 5840 5837 5833 5829 5826 5821 5817 5813 5808 5803 5797 5791 5786 5781 5777 5771 5766 5760 5754 5750 5746 5741 5736 5728 5731 5728 5725 5723 5723 5722 5723 5724 5726 5727 5729
5856 5853 5850 5848 5845 5843 5840 5837 5834 5830 5826 5822 5818 5813 5808 5803 5799 5793 5788 5782 5777 5771 5766 5761 5755 5751 5746 5741 5735 5730 5727 5722 5714 5712 5711 5710 5710 5709 5710 5711 5713 5714 5716
5851 5848 5845 5842 5838 5835 5832 5829 5825 5823 5819 5814 5809 5805 5800 5794 5789 5782 5777 5772 5767 5762 5756 5750 5746 5741 5735 5729 5724 5718 5712 5709 5707 5704 5696 5696 5696 5695 5698 5698 5698 5700 5702
5845 5843 5840 5836 5832 5828 5824 5820 5817 5812 5808 5804 5800 5795 5790 5784 5778 5772 5766 5762 5756 5750 5745 5740 5734 5729 5723 5717 5711 5706 5701 5696 5692 5693 5692 5685 5682 5683 5682 5684 5685 5686 5687
5839 5837 5833 5829 5825 5821 5815 5810 5807 5802 5798 5794 5789 5784 5779 5773 5767 5760 5755 5750 5744 5738 5733 5728 5722 5716 5710 5704 5699 5693 5690 5686 5683 5680 5679 5678 5675 5670 5669 5669 5669 5670 5674